CZ-6A DEB

Satellite information

Favourite Embed

Satellite Type and Status

DEBRISIN ORBIT

Key statistics

Satellite CZ-6A DEB at a glance.

Uptime

1029

Days in orbit

Revolutions

≈ 13.9

Per day

Orbit

SSO

Sun Synchronous Orbit

Inclination

99.0

Latest

Satellite identification and parameters

Extended collection of information and parameters for CZ-6A DEB.

Object identification

Identified? True

Debris? True

Object name: CZ-6A DEB

International designator: 2022-151HV

Object number (NORAD): 54493

Object ID (CCSDS): 54493

Country: PEOPLES REPUBLIC OF CHINA (PRC)

Current information (Y/N): Y

RCS size: SMALL

Orbital parameters

Period: 103.775 minutes

Inclination: 98.9581 deg

SMA: 7315.128 km

Apoapsis: 1074.076 km

Periapsis: 799.909 km

RAAN: 217.5023 deg

Eccentricy: 0.01873977

Argument of periapsis: 156.3972 deg

Mean anomaly: 204.5925 deg

Mean motion: 13.87617952 rev/day

Mean motion (dot): 0.00002425 rev/day2

B* drag term: 0.0018137345 1/REarth

Two-line elements (TLE)

Creation date: Sept. 4, 2025, 4:29 a.m.

Reference frame: TEME

Reference center: EARTH

Epoch: Sept. 3, 2025, 9:37 p.m. UTC

TLE line 0: 0 CZ-6A DEB

TLE line 1: 1 54493U 22151HV 25246.90094358 .00002425 00000-0 18137-2 0 9998

TLE line 2: 2 54493 98.9581 217.5023 0187398 156.3972 204.5925 13.87617952141480

Live tracking on map

Real-time ground track for satellite CZ-6A DEB.

In-orbit conjunctions

A list of the most updated potential collisions computed for object CZ-6A DEB.

Target Orbit TCA Probability of collision Miss distance Type
NOAA 16 DEB SSO 2024-11-16 07:43:00 0.0002379749 779.0 (m) DEBRIS
CZ-6A DEB LEO 2024-11-01 21:13:11 0.0001511072 696.0 (m) DEBRIS

Associated space launch

Chinese satellite reported for atmospheric/ocean/environmental/spatial parameter research purposes, details TBD.

CZ-6A DEB was lifted into orbit during the mission ‘Long March 6A | Yunhai 3’, on board a Long March 6A space rocket.

The launch took place on Nov. 11, 2022, 10:52 p.m. from Launch Complex 9A.

For more information about the launch, click the button.

Launch to space Long March 6A | Yunhai 3
Long March 6A | Yunhai 3

Agency: N/A

Status: Launch Successful

Launch date: Nov. 11, 2022, 10:52 p.m. UTC

Rocket: Long March 6A

Launch pad: Launch Complex 9A

Location: Taiyuan Satellite Launch Center, People's Republic of China

...

Latest news about this satellite

There are no fresh news available about this satellite. Check back as we update our databases every day.


Newsletter sign-up

Weekly statistics, charts and insights to help you stay on top of the space industry.